Vorticity
2 3 6 11 7 6 13 7 5 5 3 6 13 1 4 2 -9 -6 1 4 4 6 3 11 8 6 7 7 6 7 7 6 6 6 5 6 6 5 7 3 4 2 4 7 5 5 4 2 3
2 6 10 11 0 3 8 7 3 3 4 10 5 6 10 4 6 9 5 11 4 4 4 4 3 4 3 6 7 6 6 6 6 6 6 6 6 5 4 6 3 6 3 -6 1 4 3 2 6
3 8 11 9 8 12 12 5 3 5 6 5 5 7 7 11 6 4 7 4 5 4 4 5 6 5 7 7 6 6 5 5 5 5 5 6 6 6 5 6 6 6 6 6 6 4 -5 4 6
6 11 10 2 3 11 4 7 0 2 7 4 4 11 11 3 6 5 4 3 3 6 3 5 6 8 7 7 6 5 5 6 6 6 5 5 4 5 5 5 5 6 7 7 7 7 8 7 -3
8 10 4 9 7 11 7 5 2 4 2 5 6 2 3 7 7 4 4 4 5 3 5 7 6 6 5 6 5 6 7 7 6 5 5 4 5 6 7 8 8 8 8 8 8 8 9 10 9
8 8 6 6 5 8 2 4 3 2 4 6 9 5 4 7 4 5 4 3 4 4 8 6 6 7 7 6 7 7 7 6 5 5 5 6 7 9 8 9 8 8 9 10 11 12 12 12 12
7 8 1 14 7 4 2 3 3 5 7 6 5 7 15 9 6 6 3 3 5 8 7 6 7 8 8 7 6 6 6 5 5 6 8 8 9 9 9 10 11 12 12 9 9 11 14 14 13
9 7 6 9 5 -0 3 2 2 7 4 5 4 12 15 7 2 4 3 6 10 7 7 6 7 7 6 7 8 6 4 6 6 8 8 8 9 9 10 10 11 9 7 12 11 11 10 4 7
9 6 10 4 6 3 5 4 7 5 6 6 7 3 -0 4 5 5 6 10 7 7 6 7 8 7 7 7 4 3 4 6 8 9 8 9 10 11 11 8 6 5 9 7 8 4 8 6 10
7 9 8 5 5 6 3 7 5 4 11 12 8 6 4 6 8 8 10 8 7 5 6 7 7 7 7 5 3 4 7 8 9 10 9 10 10 11 9 6 5 7 8 6 5 5 5 6 11
6 6 -4 13 4 4 3 3 5 11 7 6 5 3 8 8 6 9 9 5 5 6 8 8 8 8 6 3 4 7 8 11 10 9 10 8 7 8 9 6 8 8 9 5 4 5 5 10 6
5 7 7 2 6 5 5 4 5 8 4 6 5 8 7 8 10 7 5 6 7 7 7 8 8 6 4 4 6 8 11 10 10 9 8 8 7 7 8 8 8 8 8 8 6 6 8 5 4
5 6 3 5 5 5 6 5 10 8 6 5 8 8 6 7 9 3 4 6 7 7 9 8 6 4 3 5 8 10 12 11 9 7 8 8 7 7 7 7 8 7 7 5 7 7 5 6 3
14 1 3 9 7 5 6 9 7 7 10 10 10 6 10 10 5 1 1 5 9 11 10 7 5 4 4 8 10 11 9 7 6 7 7 7 6 6 6 6 6 6 6 5 5 5 5 4 5
-2 13 11 3 5 6 12 7 3 7 10 7 11 12 10 7 4 1 3 6 11 12 8 5 4 4 7 8 9 8 6 6 7 9 8 7 7 6 6 6 7 6 5 5 6 7 5 5 4
7 9 3 17 11 9 7 1 16 17 11 6 7 9 3 6 5 2 5 11 13 10 6 5 4 5 6 7 10 10 10 9 7 6 5 4 5 5 6 5 6 7 8 7 5 5 8 9 6
20 3 13 4 11 6 8 15 17 10 8 8 9 4 2 5 6 6 6 17 12 7 6 5 4 6 8 10 11 8 6 5 5 6 6 7 7 7 7 6 6 6 7 8 8 7 5 5 11
0 11 8 10 18 9 6 7 5 5 7 2 1 6 8 2 6 10 13 16 9 6 5 4 5 6 7 9 7 4 4 2 -0 1 3 5 6 7 7 7 7 7 7 8 8 9 7 6 4
7 11 15 9 3 6 4 5 7 5 6 5 7 7 3 9 6 15 20 11 7 5 4 4 5 6 9 7 1 4 -1 0 1 3 4 7 10 10 8 8 8 8 8 8 9 11 11 8 7
1 4 6 9 5 2 4 5 6 4 5 5 7 6 8 7 13 13 15 8 7 5 4 5 6 6 6 4 3 2 0 1 -1 -2 -1 6 12 14 12 10 9 9 9 9 9 10 11 9 12
7 6 6 -4 9 8 2 18 10 7 8 10 11 10 7 11 11 15 11 8 5 5 4 5 5 5 5 2 1 2 1 1 0 0 1 8 15 15 11 9 8 7 7 7 6 7 7 10 5
6 11 10 10 6 4 16 -1 4 7 8 7 8 10 11 11 12 15 9 5 4 4 4 5 5 4 3 2 3 3 2 1 1 -3 1 11 18 12 8 6 6 6 5 5 5 6 6 6 8
7 11 8 8 9 3 7 5 31 19 12 14 14 14 11 10 12 9 6 5 4 5 5 5 5 4 4 4 3 2 2 1 1 -4 8 21 13 9 6 5 4 5 4 4 3 3 3 4 5
8 10 7 8 9 20 21 -7 25 14 24 14 11 8 9 9 11 9 6 5 5 5 5 6 5 4 4 4 4 4 2 2 -0 11 18 14 8 5 5 5 5 5 4 4 4 3 3 3 4
5 13 11 11 13 3 16 16 -21 3 -0 10 9 10 6 12 11 8 6 6 6 6 7 6 5 4 4 4 4 2 1 -0 10 16 7 5 4 6 6 6 6 7 8 7 6 6 5 6 6
8 -5 -12 9 9 9 11 15 8 21 12 9 7 6 7 9 9 8 9 8 7 7 6 6 6 5 5 4 3 1 -1 11 13 10 6 8 11 7 7 7 7 6 6 6 8 8 9 9 8
35 7 5 -5 11 8 6 23 -3 -3 0 8 9 11 9 7 4 2 5 9 9 8 7 7 6 4 6 5 -2 3 12 13 6 5 7 8 7 6 5 6 5 5 6 7 7 7 7 8 8
-15 28 11 11 4 7 17 14 -20 2 27 22 13 10 12 6 4 4 9 10 9 8 7 4 5 3 0 1 10 16 7 3 5 8 8 7 8 7 6 5 5 4 4 6 7 9 10 10 10
3 0 -7 0 -3 7 4 21 11 15 21 10 13 9 4 4 5 6 4 7 5 0 4 6 2 -3 2 11 9 3 6 6 3 4 4 4 5 6 5 7 6 7 7 7 10 9 8 8 7
7 5 6 -17 23 -0 1 12 -18 -6 6 10 10 8 4 2 6 4 -1 1 3 5 1 -0 3 4 18 7 7 3 4 4 5 7 8 11 14 15 14 12 10 10 11 13 21 18 15 16 10
Height
3166 3167 3167 3168 3172 3168 3168 3170 3171 3173 3174 3175 3174 3175 3175 3174 3174 3177 3174 3174 3174 3174 3175 3175 3175 3174 3173 3173 3172 3172 3171 3170 3169 3169 3168 3167 3166 3166 3165 3164 3163 3163 3162 3161 3160 3159 3159 3158 3156
3165 3165 3166 3166 3167 3166 3167 3168 3170 3171 3173 3174 3174 3174 3174 3173 3172 3172 3172 3173 3173 3173 3174 3174 3173 3173 3172 3172 3172 3171 3170 3169 3169 3168 3167 3166 3165 3164 3163 3162 3161 3161 3160 3159 3158 3157 3157 3156 3155
3164 3164 3166 3165 3164 3164 3166 3168 3169 3170 3172 3173 3174 3174 3173 3173 3171 3170 3172 3171 3172 3172 3172 3172 3172 3172 3171 3171 3170 3169 3168 3168 3167 3166 3165 3164 3163 3162 3161 3160 3159 3158 3157 3156 3155 3154 3154 3153 3152
3162 3164 3165 3163 3163 3164 3166 3167 3169 3169 3170 3171 3172 3173 3173 3172 3170 3170 3169 3170 3170 3170 3171 3171 3171 3170 3169 3169 3168 3167 3166 3166 3165 3164 3163 3162 3161 3159 3158 3157 3156 3155 3153 3152 3151 3150 3149 3148 3148
3161 3161 3162 3161 3162 3164 3165 3167 3168 3169 3169 3170 3171 3171 3171 3171 3169 3170 3170 3169 3169 3169 3169 3169 3169 3168 3168 3167 3167 3166 3165 3165 3164 3162 3161 3159 3158 3156 3155 3153 3152 3151 3150 3148 3146 3145 3144 3143 3143
3159 3160 3160 3160 3162 3163 3165 3166 3167 3167 3169 3169 3169 3169 3170 3169 3169 3169 3169 3169 3168 3168 3168 3168 3168 3168 3167 3166 3166 3165 3165 3164 3162 3161 3159 3157 3155 3154 3152 3151 3149 3148 3146 3144 3142 3140 3139 3138 3137
3156 3158 3158 3159 3161 3162 3163 3164 3166 3166 3167 3168 3168 3168 3168 3167 3168 3169 3169 3168 3167 3167 3167 3167 3167 3167 3166 3166 3165 3164 3163 3162 3161 3159 3157 3155 3153 3151 3149 3148 3146 3144 3143 3141 3139 3137 3135 3134 3133
3155 3156 3156 3158 3159 3161 3162 3163 3164 3164 3165 3166 3166 3165 3166 3166 3167 3168 3167 3166 3166 3165 3166 3166 3166 3166 3165 3165 3164 3162 3161 3160 3159 3157 3154 3152 3150 3148 3146 3144 3143 3142 3140 3137 3135 3132 3131 3128 3126
3153 3155 3154 3157 3159 3160 3161 3162 3162 3163 3162 3163 3165 3164 3165 3166 3166 3166 3165 3165 3165 3164 3164 3165 3165 3164 3164 3164 3163 3161 3159 3158 3157 3155 3152 3150 3148 3147 3144 3141 3140 3140 3138 3134 3131 3129 3127 3125 3122
3150 3151 3154 3156 3158 3159 3160 3160 3161 3161 3161 3161 3162 3163 3163 3164 3164 3164 3164 3164 3163 3163 3163 3163 3163 3163 3163 3163 3162 3160 3157 3156 3155 3153 3151 3148 3146 3145 3144 3142 3139 3137 3135 3131 3129 3127 3125 3124 3121
3147 3150 3153 3154 3156 3157 3157 3158 3158 3158 3158 3160 3161 3161 3161 3161 3161 3162 3162 3162 3162 3162 3162 3162 3162 3162 3161 3161 3160 3158 3156 3154 3152 3151 3149 3148 3144 3143 3142 3141 3139 3137 3133 3130 3127 3125 3124 3122 3118
3146 3149 3151 3152 3154 3154 3155 3155 3155 3156 3157 3158 3158 3158 3158 3159 3159 3160 3160 3160 3160 3160 3160 3160 3159 3160 3160 3159 3157 3155 3153 3152 3150 3149 3147 3146 3143 3141 3140 3139 3138 3136 3132 3128 3125 3122 3120 3117 3114
3145 3147 3149 3150 3151 3152 3153 3153 3153 3154 3155 3155 3156 3156 3156 3156 3157 3158 3158 3158 3158 3158 3158 3158 3158 3158 3157 3157 3155 3153 3152 3150 3149 3148 3147 3145 3142 3140 3138 3137 3135 3133 3129 3126 3122 3120 3117 3113 3110
3143 3145 3146 3147 3148 3149 3150 3150 3150 3152 3152 3153 3153 3153 3154 3154 3155 3156 3156 3156 3156 3156 3156 3156 3156 3156 3156 3154 3152 3151 3150 3149 3147 3146 3144 3143 3141 3139 3137 3135 3133 3130 3126 3123 3120 3118 3115 3112 3108
3141 3142 3143 3144 3145 3146 3147 3148 3148 3149 3150 3150 3150 3150 3151 3152 3153 3154 3154 3153 3153 3153 3153 3154 3155 3154 3153 3151 3149 3149 3148 3146 3145 3144 3142 3140 3138 3137 3134 3132 3130 3127 3124 3121 3118 3116 3113 3110 3106
3139 3140 3140 3140 3141 3143 3145 3145 3145 3145 3146 3147 3146 3147 3148 3149 3150 3151 3151 3150 3150 3151 3152 3152 3152 3151 3150 3149 3148 3147 3146 3144 3143 3141 3140 3137 3135 3133 3131 3128 3126 3124 3122 3119 3116 3113 3111 3108 3104
3135 3135 3136 3138 3138 3140 3141 3141 3141 3142 3143 3144 3144 3145 3146 3146 3147 3147 3147 3147 3148 3149 3149 3149 3150 3149 3148 3147 3146 3145 3143 3142 3141 3139 3138 3136 3133 3130 3127 3125 3122 3120 3118 3116 3113 3111 3108 3105 3102
3131 3132 3133 3134 3136 3136 3137 3139 3138 3139 3140 3141 3141 3142 3143 3143 3144 3143 3143 3143 3145 3145 3146 3147 3146 3145 3145 3144 3144 3143 3142 3141 3139 3137 3135 3132 3130 3127 3123 3120 3118 3116 3113 3111 3109 3107 3104 3101 3098
3128 3129 3131 3132 3133 3134 3135 3136 3135 3135 3136 3136 3137 3138 3139 3140 3139 3138 3139 3140 3141 3143 3144 3143 3143 3143 3143 3142 3141 3140 3139 3137 3136 3134 3131 3128 3126 3123 3119 3115 3113 3111 3108 3106 3104 3103 3100 3097 3095
3125 3127 3129 3129 3130 3132 3131 3132 3131 3130 3131 3132 3132 3134 3135 3135 3134 3134 3136 3137 3139 3140 3141 3141 3141 3140 3139 3139 3138 3137 3135 3134 3132 3130 3127 3124 3121 3118 3115 3112 3108 3106 3104 3101 3099 3097 3096 3092 3088
3123 3125 3126 3128 3128 3128 3127 3125 3125 3125 3125 3126 3127 3129 3129 3130 3131 3131 3133 3135 3136 3137 3138 3138 3137 3137 3136 3135 3134 3133 3131 3130 3127 3124 3121 3118 3115 3112 3109 3107 3104 3101 3099 3097 3095 3092 3090 3090 3086
3120 3121 3123 3125 3126 3126 3126 3122 3119 3121 3120 3120 3122 3123 3124 3126 3127 3129 3130 3132 3133 3134 3134 3134 3134 3134 3133 3132 3130 3128 3126 3124 3122 3120 3116 3113 3109 3106 3103 3101 3099 3097 3094 3092 3090 3088 3086 3084 3084
3117 3119 3121 3122 3123 3123 3123 3123 3113 3115 3115 3116 3117 3119 3121 3123 3124 3125 3127 3129 3130 3130 3131 3131 3131 3130 3129 3128 3126 3124 3122 3120 3117 3114 3111 3107 3103 3101 3099 3096 3094 3091 3089 3087 3084 3082 3080 3078 3077
3114 3117 3119 3120 3121 3120 3117 3118 3110 3110 3112 3113 3114 3116 3118 3119 3120 3121 3123 3125 3126 3127 3127 3127 3127 3126 3124 3123 3121 3119 3117 3114 3111 3108 3104 3100 3098 3096 3093 3090 3088 3085 3082 3080 3078 3076 3074 3071 3069
3111 3114 3118 3122 3122 3116 3113 3113 3106 3107 3108 3109 3111 3113 3114 3115 3117 3118 3120 3121 3122 3123 3123 3123 3121 3120 3118 3117 3115 3113 3110 3107 3104 3100 3097 3094 3092 3090 3087 3083 3081 3078 3075 3072 3069 3068 3066 3063 3061
3107 3110 3110 3117 3117 3110 3110 3105 3101 3103 3104 3105 3108 3110 3111 3112 3113 3115 3116 3118 3118 3119 3118 3118 3116 3114 3113 3112 3109 3105 3103 3099 3096 3093 3090 3087 3084 3081 3078 3074 3071 3068 3065 3063 3060 3057 3056 3054 3052
3103 3105 3107 3107 3109 3109 3103 3100 3099 3099 3101 3102 3104 3106 3108 3109 3111 3112 3112 3113 3114 3114 3113 3112 3111 3109 3108 3105 3102 3098 3095 3091 3087 3084 3081 3078 3075 3071 3068 3064 3061 3058 3055 3052 3049 3046 3044 3042 3040
3098 3101 3103 3104 3109 3107 3099 3097 3093 3095 3097 3099 3100 3102 3104 3106 3106 3107 3108 3110 3110 3110 3108 3107 3105 3103 3100 3097 3094 3090 3087 3083 3079 3076 3073 3069 3065 3061 3057 3053 3049 3045 3043 3040 3037 3034 3032 3029 3027
3093 3094 3096 3099 3099 3099 3104 3092 3091 3092 3094 3095 3097 3099 3100 3101 3101 3102 3104 3105 3105 3104 3103 3101 3098 3095 3091 3087 3084 3081 3077 3074 3070 3066 3062 3058 3054 3051 3045 3040 3035 3031 3028 3027 3023 3019 3016 3014 3013
3087 3088 3092 3093 3094 3094 3094 3088 3089 3090 3091 3092 3094 3095 3096 3097 3098 3099 3100 3100 3099 3098 3096 3093 3090 3086 3082 3078 3074 3070 3066 3062 3058 3053 3048 3043 3038 3035 3030 3025 3020 3015 3011 3009 3005 3002 3000 2998 2996